Powrót do katalogu

RADUGA 31

AktywnyMilitariaGEO
NORAD 23010·PAYLOAD·🇷🇺 Russia

Wystrzelony Feb 18, 1994 z Baikonur Cosmodrome

Loading…

TLE

ŚwieżeSource: Space-Track

Epoka: Sep 12, 2026, 22:13 UTC

1 23010U 94012A   26255.92619395  .00000098  00000-0  00000+0 0  9992
2 23010  14.1014 347.5733 0001557 184.8711 197.9507  1.00255386119233

Śledź RADUGA 31 w czasie rzeczywistym z AllMySat

Download on the App Store